World > North America > United States > Ohio

Clear Creek, Ohio Regional Weather

Lat: 40.97N, Lon: 82.37W
Wx Zone: OHZ030Web Search
Clear Creek Weather Warning NWS WEATHER ALERT FOR THE CLEAR CREEK, OH AREA - Issued: 314 PM EDT Sat May 8 2021 Clear Creek Weather Warning  

Ads allow us to feed your daily addiction for the world's greatest weather information. We're determined to offer quality sponsors, in the least annoying way possible.

Feedback


°F Click to change Clear Creek hourly weather to Imperial units.Click to change Clear Creek hourly weather to Metric units. °C
Clear Creek Weather Map
UTC Time: 5/8/2021, 22:57
Your Time:

Clear Creek, OH Regional Weather

Expires:202105082300;;807920
ASUS41 KCLE 082212
RWRCLE
OHIO REGIONAL WEATHER ROUNDUP
NATIONAL WEATHER SERVICE WILMINGTON, OH
600 PM EDT SAT MAY 08 2021

NOTE: "FAIR" INDICATES FEW OR NO CLOUDS BELOW 12,000 FEET WITH NO
SIGNIFICANT WEATHER AND/OR OBSTRUCTIONS TO VISIBILITY.


OHZ009>014-019>023-028>033-038-089-082300-
   NORTHEAST OHIO
  
CITY           SKY/WX    TMP DP  RH WIND       PRES   REMARKS
CLE-HOPKINS    PTSUNNY   52  32  46 CALM      30.07S                  
CLE-LAKEFRONT  FAIR      51  37  58 W10       30.08F                  
CUY CO. ARPT   MOSUNNY   48  36  61 W7        30.08F                  
LORAIN-ELYRIA  FAIR      52  29  41 NW6       30.09R                  
ASHTABULA      CLOUDY    47  36  65 W7        30.08S                  
AKRON-CANTON   PTSUNNY   53  33  46 NW8       30.07R                  
WOOSTER        PTSUNNY   52  34  50 NW7       30.08R                  
MANSFIELD      CLOUDY    52  32  46 CALM      30.07R                  
YOUNGSTOWN     PTSUNNY   48  34  58 NW13      30.07S                  
$$
 

SKY/WX - Weather  TMP - Temperature  DP - Dew Point  RH - Relative Humidity
WIND - Wind Direction/Speed PRES - Barometric Pressure VSB - Visibility
WCI - Wind Chill Index E13G22 Wind - East Wind 13 mph/Gusts of 22 mph